MDT,Max TemperatureF,Mean TemperatureF,Min TemperatureF,Max Dew PointF,MeanDew PointF,Min DewpointF,Max Humidity, Mean Humidity, Min Humidity, Max Sea Level PressureIn, Mean Sea Level PressureIn, Min Sea Level PressureIn, Max VisibilityMiles, Mean VisibilityMiles, Min VisibilityMiles, Max Wind SpeedMPH, Mean Wind SpeedMPH, Max Gust SpeedMPH,PrecipitationIn, CloudCover, Events, WindDirDegrees
2010-10-1,84,63,42,49,43,37,83,56,28,30.29,30.17,30.09,10,10,10,13,6,20,0.00,0,,83
2010-10-2,63,52,40,44,34,24,92,58,23,30.46,30.37,30.31,10,10,10,16,7,20,0.00,1,,88
2010-10-3,71,59,46,42,38,33,63,48,33,30.31,30.21,30.09,10,10,10,26,15,35,0.00,2,,159
2010-10-4,79,61,42,49,43,36,83,58,32,30.12,30.06,29.99,10,10,10,25,14,33,0.00,1,,152
2010-10-5,80,62,44,50,46,41,89,61,33,30.19,30.10,30.04,10,10,9,16,8,22,0.00,0,,126
2010-10-6,79,64,48,52,48,45,86,61,35,30.32,30.24,30.15,10,10,6,20,9,26,0.00,0,,48
2010-10-7,84,64,44,52,48,42,93,60,27,30.27,30.14,30.00,10,10,9,21,7,26,0.00,0,,143
2010-10-8,86,65,44,52,45,42,86,55,23,30.03,29.92,29.79,10,10,7,31,8,43,0.03,1,Rain-Thunderstorm,306
2010-10-9,73,61,48,44,39,37,74,52,29,30.07,30.02,29.97,10,10,10,23,12,30,T,2,,296
2010-10-10,62,57,51,52,50,47,96,90,83,30.01,29.95,29.89,10,9,2,23,11,30,0.22,7,Rain,317
2010-10-11,70,59,48,51,47,41,93,68,42,30.03,29.99,29.94,10,10,9,18,9,22,0.03,3,Rain,331
2010-10-12,64,51,38,49,42,33,93,66,39,30.39,30.27,30.04,10,10,10,26,11,32,0.00,2,,347
2010-10-13,68,49,30,36,32,27,92,57,22,30.51,30.41,30.29,10,10,9,8,4,12,0.00,0,,230
2010-10-14,80,60,39,41,34,27,85,50,15,30.30,30.20,30.11,10,7,2,13,6,16,0.00,0,,289
2010-10-15,87,62,37,38,34,31,76,45,14,30.12,30.02,29.90,10,10,7,17,5,24,0.00,0,,229
2010-10-16,68,54,39,37,31,28,65,45,24,30.22,30.13,29.94,10,10,10,26,10,32,0.00,0,,20
2010-10-17,72,53,33,42,34,27,76,54,31,30.20,30.08,29.95,10,10,10,17,5,22,0.00,0,,167
2010-10-18,61,53,45,47,39,34,93,67,40,30.18,30.12,30.03,10,10,8,18,8,22,0.05,5,Rain,340
2010-10-19,73,55,36,42,35,29,92,56,20,30.13,30.07,29.97,10,10,8,21,8,24,0.00,1,,277
2010-10-20,77,55,33,37,32,29,82,51,19,30.10,30.07,30.01,10,10,8,16,6,21,0.00,0,,310
2010-10-21,75,54,32,38,33,28,82,53,23,30.10,29.99,29.87,10,10,10,17,7,22,0.00,0,,143
2010-10-22,62,51,40,56,49,38,100,88,76,29.86,29.79,29.68,10,8,2,17,6,22,0.19,6,Rain-Thunderstorm,139
2010-10-23,64,55,46,52,50,44,100,80,60,29.76,29.67,29.62,10,5,0,16,7,20,0.08,6,Fog-Rain,342
2010-10-24,73,59,44,46,41,28,100,60,20,29.81,29.72,29.41,10,7,0,23,10,32,0.00,3,Fog,294
2010-10-25,61,51,41,48,38,30,71,61,50,29.44,29.27,29.12,10,10,8,43,16,51,0.03,4,Rain,296
2010-10-26,59,49,38,31,24,19,70,47,24,29.69,29.55,29.44,10,10,10,31,18,45,0.00,1,,286
2010-10-27,53,44,34,26,22,19,64,46,28,30.39,30.03,29.70,10,10,10,44,21,56,0.00,1,,298
2010-10-28,64,47,30,26,19,10,64,39,13,30.56,30.43,30.27,10,10,7,16,9,35,0.00,0,,238
2010-10-29,75,51,26,29,22,17,75,43,11,30.24,30.06,29.90,10,10,10,9,4,12,0.00,0,,208
2010-10-30,75,59,42,34,31,25,62,41,20,29.99,29.94,29.88,10,10,10,22,9,25,0.00,0,,28
2010-10-31,62,49,35,36,33,30,76,56,35,30.21,30.07,29.91,10,10,10,20,7,24,T,2,Rain,117